Powrót do katalogu

FENGYUN 1C DEB

AktywnySSO
NORAD 29946·DEBRIS·🇨🇳 China

Wystrzelony May 10, 1999 z Taiyuan Satellite Launch Center

Loading…

Następne Przeloty (najbliższe 24 godziny)

TLE

ŚwieżeSource: Space-Track

Epoka: Sep 14, 2026, 09:56 UTC

1 29946U 99025JU  26257.41405002  .00000193  00000-0  13431-3 0  9991
2 29946  98.7992 247.6350 0079400 285.9928 234.5144 14.08457939  9154

Śledź FENGYUN 1C DEB w czasie rzeczywistym z AllMySat

Download on the App Store